DELTA 1 DEB, 7161

Orbit data source: Space-Track

DELTA 1 DEB, 7161 is space debris in SSO originally from a launch on Tue, 06 Nov 1973 UTC launched from the Air Force Western Test Range (AFWTR). Debris objects in space refer to the collection of defunct objects orbiting the Earth. Examples of debris include non-operational satellites, rocket bodies, and fragments generated from explosions, collisions, or faulty payload assembly.

Loading next visibility...
Identifier
7161, 1973-086DZ
Orbit
SSO
Country
Flag of USUS
Related business
Manufacturer
Unknown
Mission
Spacecraft
Bus & Motor
Unknown
Mass
Unknown
Launch date (UTC)
1973-11-06 (53 years ago)
Launch vehicle
Unknown
Launch site
Air Force Western Test Range (AFWTR)
Object type
Payload
Rocket body
Debris
Shape & HBR
Unknown shape, 0.2 m
Radar Cross Section
Medium (>0.1 m² and <1 m²)

Expand to show TLE details & history
Last TLE update: 23 hours ago

TLE from 23 hours ago
0 DELTA 1 DEB
1 07161U 73086DZ  26263.88558446 -.00000028  00000-0  13442-3 0  9994
2 07161 102.2023 293.4134 0014456 306.3128 230.9055 12.41260666394662
Epoch: 2026-09-20T21:15Z
TLE epoch observation values (Epoch: 2026-09-20T21:15:14.497Z)
Latitude
2.75588°
Longitude
155.42317°
Altitude
1,510.685 km
Speed
7.107 km/s
True Right ascension
07h 36m 01s
True Declination
2° 44' 28"
Sunlit
Object was in daylight at epoch
Visualization orbit readout
Latitude
Unknown
Longitude
Unknown
Altitude
Unknown
Speed
Unknown
Apparent Right ascension
Unknown
Apparent Declination
Unknown
Sunlit
N/A
Visualization observer readout
Local Sidereal Time
12:52:24
Azimuth
Unknown
Elevation
Unknown
Doppler factor
Unknown
Orbital elements
Apogee altitude
1,510.236 km
Perigee altitude
1,487.462 km
Semi-major axis
7,876.986 km
Eccentricity
0.00145
Inclination
102.2023°
RAAN
293.4134°
Arg. of periapsis
306.3128°
True anomaly
230.77708°
Mean anomaly
230.9055°
Eccentric anomaly
230.84128°
Mean motion
3.10458 °/min
Orbital period
115.96 mins
BSTAR
0.00013442
Loading maneuver chart data...
Computing Atmospheric mass density...

Documentation

Showing up to 5 results
|